Weather History for Wheeler AAF, HI

Change the Weather History Date:

Tuesday, January 29, 2013

  Actual Average Record
Temperature  
Mean Temperature 68 °F -  
Max Temperature 75 °F 74 °F 80 °F (2004)
Min Temperature 61 °F 61 °F 60 °F (1998)
Cooling Degree Days 3    
Growing Degree Days 18 (Base 50)    
Moisture  
Dew Point 63 °F    
Average Humidity 79    
Maximum Humidity 94    
Minimum Humidity 69    
Precipitation  
Precipitation 0.01 in - - ()
Sea Level Pressure  
Sea Level Pressure 29.95 in    
Wind  
Wind Speed 6 mph (NNW)    
Max Wind Speed 14 mph    
Max Gust Speed -    
Visibility 10 miles    
Events Rain    
Averages and records for this station are not official NWS values.
T = Trace of Precipitation, MM = Missing Value Source: NWS Daily Summary

Daily Weather History Graph

Daily Weather History Graph

Search for Another Location

Airport:

Trip Planner

Search our weather history database for the weather conditions in past years. The results will help you decide how hot, cold, wet, or windy it might be!

Date:

Astronomy

Jan. 29, 2013 Rise Set
Actual Time 7:10 AM HST 6:20 PM HST
Civil Twilight 6:47 AM HST 6:43 PM HST
Nautical Twilight 6:20 AM HST 7:10 PM HST
Astronomical Twilight 5:53 AM HST 7:37 PM HST
Moon 8:57 PM HST (1/29) 8:40 AM HST (1/29)
Length of Visible Light 11h 56m
Length of Day
11h 10m
Waning Gibbous, 92% of the Moon is Illuminated
Jan 29
Waning Gibbous
Feb 3
Last Quarter
Feb 9
New
Feb 17
First Quarter
Feb 25
Full

Hourly Weather History & Observations

Time (HST) Temp. Dew Point Humidity Pressure Visibility Wind Dir Wind Speed Gust Speed Precip Events Conditions
6:55 AM 61.9 °F 60.1 °F 94% 29.94 in 10.0 mi NNW 4.6 mph - N/A   Clear
7:55 AM 62.4 °F 60.8 °F 94% 29.96 in 10.0 mi NW 4.6 mph - N/A   Clear
8:55 AM 66.7 °F 63.9 °F 90% 29.97 in 10.0 mi NNW 4.6 mph - N/A   Clear
9:55 AM 70.0 °F 64.0 °F 81% 29.98 in 10.0 mi NNW 5.8 mph - N/A   Mostly Cloudy
10:55 AM 73.0 °F 63.9 °F 73% 29.97 in 10.0 mi NNW 6.9 mph - N/A   Clear
11:29 AM 73.4 °F 62.6 °F 69% 29.96 in 10.0 mi NNW 6.9 mph - N/A   Mostly Cloudy
11:39 AM 73.4 °F 64.4 °F 73% 29.95 in 10.0 mi NNW 9.2 mph - N/A   Mostly Cloudy
11:48 AM 75.2 °F 64.4 °F 69% 29.95 in 10.0 mi North 9.2 mph - N/A   Mostly Cloudy
11:55 AM 73.6 °F 64.6 °F 73% 29.95 in 10.0 mi North 8.1 mph - N/A   Mostly Cloudy
12:01 PM 73.4 °F 64.4 °F 73% 29.95 in 10.0 mi North 9.2 mph - N/A   Scattered Clouds
12:08 PM 73.4 °F 64.4 °F 73% 29.95 in 10.0 mi North 9.2 mph - N/A   Mostly Cloudy
12:15 PM 73.4 °F 64.4 °F 73% 29.94 in 10.0 mi NW 8.1 mph - N/A   Mostly Cloudy
12:55 PM 75.2 °F 64.2 °F 69% 29.93 in 10.0 mi NW 13.8 mph - N/A   Clear
1:55 PM 74.8 °F 64.4 °F 70% 29.91 in 10.0 mi NW 11.5 mph - N/A   Clear
2:55 PM 73.6 °F 63.0 °F 69% 29.91 in 10.0 mi North 8.1 mph - N/A   Mostly Cloudy
2:56 PM 73.4 °F 62.6 °F 69% 29.91 in 10.0 mi North 8.1 mph - N/A   Mostly Cloudy
3:55 PM 73.0 °F 63.7 °F 72% 29.91 in 10.0 mi NNE 9.2 mph - N/A   Overcast
4:03 PM 71.6 °F 62.6 °F 73% 29.92 in 10.0 mi NNE 5.8 mph - N/A   Light Drizzle
4:29 PM 71.6 °F 64.4 °F 78% 29.93 in 10.0 mi North 6.9 mph - N/A Rain Light Rain
4:50 PM 71.6 °F 64.4 °F 78% 29.93 in 10.0 mi North 6.9 mph - N/A   Mostly Cloudy
4:55 PM 71.1 °F 64.8 °F 80% 29.93 in 10.0 mi North 4.6 mph - 0.01 in   Mostly Cloudy
5:03 PM 71.6 °F 64.4 °F 78% 29.94 in 10.0 mi North 5.8 mph - N/A   Mostly Cloudy
5:19 PM 71.6 °F 64.4 °F 78% 29.94 in 10.0 mi NNW 6.9 mph - N/A   Mostly Cloudy
5:55 PM 69.4 °F 64.2 °F 83% 29.95 in 10.0 mi NW 4.6 mph - N/A   Clear
6:55 PM 68.5 °F 64.4 °F 87% 29.97 in 10.0 mi NW 5.8 mph - N/A   Overcast
7:55 PM 64.9 °F 59.5 °F 83% 29.99 in 10.0 mi NW 4.6 mph - N/A   Clear
8:55 PM 65.7 °F 61.3 °F 86% 30.00 in 10.0 mi NNW 3.5 mph - N/A   Clear
9:55 PM 64.9 °F 61.5 °F 89% 30.01 in 10.0 mi NNW 4.6 mph - N/A   Clear
10:55 PM 63.1 °F 60.6 °F 91% 30.01 in 10.0 mi Calm Calm - N/A   Clear
11:55 PM 62.2 °F 59.5 °F 91% 30.01 in 10.0 mi NNW 4.6 mph - N/A   Clear